Location: Eaton Estates
(41.3089°N, 82.0057°W)
Time: 07:41:51
(UTC+00:00)

Cosmos 1825 - Pass Details

Date: 17 June 2021
Orbit: 501 x 506 km, 82.5° (Epoch: 03 August)

Event Time Altitude Azimuth Distance (km) Brightness Sun altitude
Exits shadow 05:53:06 17° 81° (E) 1,339 4.4 -25.1°
Drops below altitude 10° 05:55:18 10° 46° (NE) 1,726 5.5 -25.0°
Sets 05:57:58 0° 26° (NNE) 2,616 7.0 -25.0°
